Home > Weather > Waco > Past weeks

Flag for U.S.A. Weather for the Past 2 Weeks in Waco, Texas, U.S.A.

Now
35 °F

Clear.


Feels Like: 32 °F
Forecast: 35 / 71 °F
Wind: 3 mph from North

Location: Waco Regional Airport

Current Time: Feb 10, 2016 at 2:59:01 AM

Latest Report: Feb 10, 2016 at 1:51 AM


Visibility: 10 mi

Pressure: 30.34 "Hg

Humidity: 72%

Dew point: 27 °F

Location of WacoLocation

Historic Weather in Waco — Graph

°F

Waco Temperature Yesterday

Maximum temperature yesterday: 70 °F (at 2:51 PM)
Minimum temperature yesterday: 29 °F (at 4:51 AM)
Average temperature yesterday: 48 °F

High & Low Weather Summary for the Past Weeks

 TemperatureHumidityPressure
High82 °F (Jan 31, 2:51 PM)96% (Feb 7, 1:51 AM)30.53 "Hg (Feb 7, 1:51 AM)
Low26 °F (Feb 4, 5:51 AM)13% (Feb 8, 3:51 PM)29.50 "Hg (Feb 1, 9:51 PM)
Average49 °F55%30.12 "Hg
* Reported Jan 26 1:51 AM — Feb 10 1:51 AM, Waco, Weather by CustomWeather, © 2016

Note: Actual official high and low records may vary slightly from our data, if they occured in-between our weather recording intervals... More about our weather records

Advertising

Waco Weather History for the Previous 24 Hours

 ConditionsComfort  
Time TempWeatherWind HumidityBarometerVisibility
1:51 AM
Wed, Feb 10
35 °FClear.3 mph72%30.34 "Hg10 mi
12:51 AM39 °FClear.3 mph62%30.34 "Hg10 mi
11:51 PM
Tue, Feb 9
43 °FClear.8 mph53%30.34 "Hg10 mi
10:51 PM42 °FClear.3 mph60%30.31 "Hg10 mi
9:51 PM44 °FClear.3 mph53%30.29 "Hg10 mi
8:51 PM52 °FClear.5 mph38%30.28 "Hg10 mi
7:51 PM53 °FClear.8 mph38%30.27 "Hg10 mi
6:51 PM53 °FClear.10 mph41%30.25 "Hg10 mi
5:51 PM63 °FSunny.8 mph29%30.22 "Hg10 mi
4:51 PM67 °FSunny.16 mph24%30.22 "Hg10 mi
3:51 PM70 °FSunny.16 mph22%30.20 "Hg10 mi
2:51 PM70 °FSunny.14 mph22%30.20 "Hg10 mi
1:51 PM68 °FSunny.18 mph21%30.22 "Hg10 mi
12:51 PM65 °FSunny.10 mph20%30.26 "Hg10 mi
11:51 AM61 °FSunny.13 mph20%30.31 "Hg10 mi
10:51 AM57 °FSunny.13 mph18%30.33 "Hg10 mi
9:51 AM51 °FSunny.9 mph25%30.35 "Hg10 mi
8:51 AM44 °FSunny.10 mph31%30.36 "Hg10 mi
7:51 AM35 °FSunny.9 mph48%30.35 "Hg10 mi
6:51 AM31 °FClear.9 mph57%30.34 "Hg10 mi
5:51 AM30 °FClear.9 mph61%30.33 "Hg10 mi
4:51 AM29 °FClear.9 mph64%30.34 "Hg10 mi
3:51 AM32 °FClear.9 mph54%30.33 "Hg10 mi
2:51 AM33 °FClear.8 mph52%30.32 "Hg10 mi
Weather by CustomWeather, © 2016

See weather overviewHow to use our weather pages